Albany, NY

8:11 PM EST on November 22, 2019 (GMT -0500)
Albany International

Weather History for KALB - September, 2019

Change the Weather History Date:

Thursday, September 19, 2019

  Actual Average Record
Temperature  
Mean Temperature 57 °F 61 °F  
Max Temperature 72 °F 71 °F 90 °F (1946)
Min Temperature 42 °F 50 °F 32 °F (1959)
Degree Days  
Heating Degree Days 8 5  
Month to date heating degree days 48 58  
Since 1 July heating degree days 50 81  
Cooling Degree Days 0 1  
Month to date cooling degree days 24 43  
Year to date cooling degree days 747 586  
Growing Degree Days 7 (Base 50)    
Moisture  
Dew Point 42 °F    
Average Humidity 64    
Maximum Humidity 96    
Minimum Humidity 31    
Precipitation  
Precipitation 0.00 in 0.11 in 1.78 in (1938)
Month to date precipitation 1.80 1.98  
Year to date precipitation 30.78 28.13  
Sea Level Pressure  
Sea Level Pressure 30.34 in    
Wind  
Wind Speed 1 mph (North)    
Max Wind Speed 7 mph    
Max Gust Speed 11 mph    
Visibility 6 miles    
Events Fog    
T = Trace of Precipitation, MM = Missing Value Source: NWS Daily Summary

Daily Weather History Graph

Daily Weather History Graph

Search for Another Location

Airport or City:

Astronomy

Sep. 19, 2019 Rise Set
Actual Time 6:39 AM EDT 6:58 PM EDT
Civil Twilight 6:10 AM EDT 7:26 PM EDT
Nautical Twilight 5:37 AM EDT 7:59 PM EDT
Astronomical Twilight 5:03 AM EDT 8:33 PM EDT
Moon 9:58 PM EDT (9/19) 11:46 AM EDT (9/19)
Length of Visible Light 13h 15m
Length of Day
12h 19m
Waning Gibbous, 74% of the Moon is Illuminated
Sep 19
Waning Gibbous
Sep 21
Last Quarter
Sep 28
New
Oct 5
First Quarter
Oct 13
Full

Hourly Weather History & Observations

Time (EDT) Temp. Windchill Dew Point Humidity Pressure Visibility Wind Dir Wind Speed Gust Speed Precip Events Conditions
12:51 AM 48.0 °F - 44.1 °F 86% 30.36 in 10.0 mi Calm Calm - N/A   Partly Cloudy
1:51 AM 46.9 °F - 42.1 °F 83% 30.37 in 10.0 mi Calm Calm - N/A   Scattered Clouds
2:51 AM 44.1 °F - 41.0 °F 89% 30.35 in 10.0 mi Calm Calm - N/A Fog Patches of Fog
3:19 AM 43.0 °F - 39.0 °F 86% 30.35 in 10.0 mi Calm Calm - N/A Fog Patches of Fog
3:31 AM 44.1 °F - 39.0 °F 82% 30.35 in 0.2 mi Calm Calm - N/A Fog Fog
3:38 AM 44.1 °F 42.5 °F 39.9 °F 85% 30.35 in 0.2 mi North 3.5 mph - N/A Fog Fog
3:51 AM 44.1 °F - 42.1 °F 93% 30.36 in 0.1 mi Calm Calm - N/A Fog Fog
4:40 AM 43.0 °F - 41.0 °F 93% 30.35 in 0.1 mi Calm Calm - N/A Fog Fog
4:49 AM 42.8 °F - 39.2 °F 87% 30.36 in 0.2 mi Calm Calm - N/A Fog Fog
4:51 AM 43.0 °F - 39.0 °F 86% 30.36 in 0.2 mi Calm Calm - N/A Fog Fog
5:39 AM 42.8 °F - 41.0 °F 93% 30.36 in 0.2 mi Calm Calm - N/A Fog Fog
5:51 AM 43.0 °F - 39.9 °F 89% 30.36 in 0.2 mi Calm Calm - N/A Fog Fog
5:59 AM 43.0 °F - 39.9 °F 89% 30.37 in 0.2 mi Calm Calm - N/A Fog Fog
6:30 AM 43.0 °F - 41.0 °F 93% 30.36 in 0.1 mi Calm Calm - N/A Fog Fog
6:51 AM 43.0 °F - 41.0 °F 93% 30.37 in 0.1 mi Calm Calm - N/A Fog Fog
6:57 AM 43.0 °F - 41.0 °F 93% 30.37 in 0.2 mi Calm Calm - N/A Fog Fog
7:51 AM 44.1 °F - 42.1 °F 93% 30.38 in 0.2 mi Calm Calm - N/A Fog Fog
8:22 AM 46.0 °F - 43.0 °F 89% 30.39 in 1.0 mi Calm Calm - N/A Fog Patches of Fog
8:26 AM 46.0 °F - 43.0 °F 89% 30.39 in 3.0 mi Calm Calm - N/A Fog Patches of Fog
8:51 AM 48.0 °F - 45.0 °F 89% 30.40 in 9.0 mi Calm Calm - N/A Fog Patches of Fog
9:51 AM 54.0 °F - 46.9 °F 77% 30.41 in 10.0 mi NW 3.5 mph - N/A   Partly Cloudy
10:51 AM 60.1 °F - 46.0 °F 60% 30.38 in 10.0 mi Variable 3.5 mph - N/A   Partly Cloudy
11:51 AM 63.0 °F - 39.9 °F 43% 30.37 in 10.0 mi SSE 5.8 mph - N/A   Partly Cloudy
12:51 PM 66.0 °F - 37.9 °F 36% 30.35 in 10.0 mi Calm Calm - N/A   Partly Cloudy
1:51 PM 68.0 °F - 39.0 °F 35% 30.33 in 10.0 mi WNW 3.5 mph - N/A   Partly Cloudy
2:51 PM 70.0 °F - 39.0 °F 32% 30.31 in 10.0 mi North 3.5 mph - N/A   Partly Cloudy
3:51 PM 70.0 °F - 39.0 °F 32% 30.30 in 10.0 mi Calm Calm - N/A   Partly Cloudy
4:51 PM 71.1 °F - 39.9 °F 32% 30.30 in 10.0 mi NE 4.6 mph - N/A   Partly Cloudy
5:51 PM 69.1 °F - 42.1 °F 38% 30.30 in 10.0 mi North 4.6 mph - N/A   Partly Cloudy
6:51 PM 66.0 °F - 41.0 °F 40% 30.28 in 10.0 mi ESE 3.5 mph - N/A   Partly Cloudy
7:51 PM 57.0 °F - 45.0 °F 64% 30.27 in 10.0 mi Calm Calm - N/A   Partly Cloudy
8:51 PM 54.0 °F - 45.0 °F 72% 30.27 in 10.0 mi Calm Calm - N/A   Partly Cloudy
9:51 PM 51.1 °F - 44.1 °F 77% 30.27 in 10.0 mi Calm Calm - N/A   Partly Cloudy
10:51 PM 50.0 °F - 43.0 °F 77% 30.27 in 10.0 mi Calm Calm - N/A   Partly Cloudy
11:51 PM 48.9 °F - 43.0 °F 80% 30.27 in 10.0 mi Calm Calm - N/A   Partly Cloudy